• Processing (Info)

  • MPEC 2023-P26 : 2023 PA

    The following Minor Planet Electronic Circular may be linked-to from your own Web pages, but must not otherwise be redistributed electronically.

    A form allowing access to any MPEC is at the bottom of this page.


    Read MPEC 2023-P25 Read MPEC 2023-P27


    M.P.E.C. 2023-P26                                Issued 2023 August 7, 00:53 UT
    
         The Minor Planet Electronic Circulars contain information on unusual
             minor planets, routine data on comets and natural satellites,
             and occasional editorial announcements.  They are published
        on behalf of Division F of the International Astronomical Union by the
              Minor Planet Center, Smithsonian Astrophysical Observatory,
                              Cambridge, MA 02138, U.S.A.
    			  
                 Prepared using the Tamkin Foundation Computer Network
    
                                  MPC@CFA.HARVARD.EDU
                URL https://www.minorplanetcenter.net/    ISSN 1523-6714
    
                                     2023 PA                                 
    
    
    Observations:
         K23P00A* C2023 08 05.28639520 27 26.243-04 13 56.13         19.89wXEP026F51
         K23P00A  C2023 08 05.30864920 27 49.799-04 11 43.24         19.80wXEP026F51
         K23P00A  C2023 08 05.31982820 28 01.545-04 10 36.45         19.88wXEP026F51
         K23P00A KC2023 08 05.88704520 38 02.78 -03 17 19.9          20.5 GVEP026104
         K23P00A KC2023 08 05.88719 20 38 03.10 -03 17 19.8          18.8 GXEP026G15
         K23P00A KC2023 08 05.89627 20 38 11.78 -03 16 30.2          19.3 GXEP026G15
         K23P00A KC2023 08 05.89989220 38 15.11 -03 16 09.9                VEP026104
         K23P00A  C2023 08 06.06666720 41 06.67 -02 57 00.2                WEP026X09
         K23P00A  C2023 08 06.07218120 41 11.64 -02 56 32.6                WEP026X09
         K23P00A  C2023 08 06.07549820 41 14.66 -02 56 14.6                WEP026X09
         K23P00A KB2023 08 06.12829 20 42 06.53 -02 55 21.1          19.9 rZEP026H36
         K23P00A KB2023 08 06.13673 20 42 14.32 -02 54 36.6          20.4 rZEP026H36
         K23P00A KB2023 08 06.14498 20 42 22.01 -02 53 52.8          19.7 rZEP026H36
         K23P00A KB2023 08 06.88109 20 53 37.375-01 52 46.27         20.2 VZEP026J57
         K23P00A KB2023 08 06.89087 20 53 45.394-01 52 01.02         19.9 VZEP026J57
         K23P00A KB2023 08 06.90101 20 53 53.621-01 51 13.43         20.1 VZEP026J57
         K23P00A KC2023 08 06.91849520 54 06.888-01 50 18.46         20.2 GVEP026J95
         K23P00A KC2023 08 06.92002420 54 08.69 -01 49 54.3          19.4 GXEP026958
         K23P00A KC2023 08 06.92984820 54 16.66 -01 49 07.5          19.2 GXEP026958
         K23P00A KC2023 08 06.92989120 54 16.171-01 49 24.67         19.5 GVEP026J95
         K23P00A KC2023 08 06.93569820 54 20.894-01 48 57.96         20.0 GVEP026J95
         K23P00A KC2023 08 06.93989520 54 24.76 -01 48 20.8          19.5 GXEP026958
         K23P00A KC2023 08 06.98416 20 54 58.10 -01 44 56.6          19.7 GXEP026K83
         K23P00A KC2023 08 06.98900 20 55 01.92 -01 44 35.0          19.5 GXEP026K83
         K23P00A KC2023 08 06.99383 20 55 05.74 -01 44 12.9                XEP026K83
    
    Observer details:
    104 San Marcello Pistoiese.  Observers P. Bacci, M. Maestripieri.  Measurers
        P. Bacci, L. Tesi, G. Fagioli.  0.60-m F4 Reflector + CCD.
    958 Observatoire de Dax.  Observers P. Dupouy, J. B. de Vanssay.  Measurer P.
        Dupouy.  0.43-m f/2.7 Reflector + CCD.
    F51 Pan-STARRS 1, Haleakala.  Observers J. Bulger, T. Lowe, P. Minguez, A.
        Schultz, I. Smith.  Measurers K. Chambers, T. de Boer, J. Bulger, J.
        Fairlamb, H. Gao, M. Huber, C.-C. Lin, T. Lowe, E. Magnier, P. Minguez, Y.
        Ramanjooloo, A. Schultz, I. Smith, R. Wainscoat, R. Weryk.  1.8-m Ritchey-
        Chretien + CCD.
    G15 Magroforte Observatory, Alessandria.  Observer A. De Pieri.  0.25-m f/5
        Newton 254 + CCD.
    H36 Sandlot Observatory, Scranton.  Observer G. Hug.  0.56-m f/4.8 reflector +
        CMO.
    J57 Centro Astronomico Alto Turia, Valencia.  Observer A. Fornas.  Measurers
        A. Fornas, G. Fornas, E. Arce, V. Mas.  0.40-m f/6.8 Reflector 0.4m + CMO.
    J95 Great Shefford.  Observer P. Birtwhistle.  0.41-m f/6.3 Schmidt-Cassegrain
        + CCD.
    K83 Beppe Forti Astronomical Observatory, Montelupo.  Observers M. Tombelli,
        M. Iozzi, M. Lombardo, F. Cheli, A. Mazzanti.  Measurers M. Tombelli, F.
        Bernardi.  0.40-m f/8 Ritchey-Chretien + CCD.
    X09 Deep Random Survey, Rio Hurtado.  Observers A. Schnabel, D. Ruhela.
        Measurer S. Deen.  0.43-m reflector + CMOS.
    
    Orbital elements:
    2023 PA                                                  Earth MOID = 0.0083 AU
    Epoch 2023 Sept. 13.0 TT = JDT 2460200.5                Veres                   
    M  19.96370              (2000.0)            P               Q                  
    n   0.32434429     Peri.  343.58577     +0.27226816     +0.96104989             
    a   2.0979665      Node   302.19109     -0.87639640     +0.22731568             
    e   0.5154502      Incl.    3.21540     -0.39723973     +0.15719636             
    P   3.04           H   25.78          G   0.15           U   9                  
    Residuals in seconds of arc
    230805 F51  0.0   0.0     230806 X09  0.2-  0.0     230806 958  0.6+  0.9+
    230805 F51  0.1-  0.1-    230806 H36  0.2+  0.3-    230806 J95  0.1-  0.3+
    230805 F51  0.1+  0.1+    230806 H36  0.6-  0.3-    230806 J95  0.1+  0.0
    230805 104  0.3+  0.1-    230806 H36  0.3+  0.1+    230806 958  1.0+  1.0+
    230805 G15  0.1-  0.8+    230806 J57  0.2-  0.4+    230806 K83  0.5+  0.5+
    230805 G15  0.7-  0.6+    230806 J57  0.3+  0.1-    230806 K83  0.2+  0.3-
    230805 104  0.5+  0.6-    230806 J57  0.1+  0.2+    230806 K83  0.1+  0.5-
    230806 X09  3.3+  1.2+    230806 J95  0.2-  0.5-
    230806 X09  0.8+  0.4-    230806 958  0.2-  0.2-
    
    Ephemeris:
    2023 PA                  a,e,i = 2.10, 0.52, 3                   q = 1.0166
    Date    TT    R. A. (2000) Decl.     Delta      r    Elong.  Phase     V
    2023 07 08    12 29 05.7 -16 10 47   0.1076  1.0184    87.9    86.0    24.0
    ...
    2023 07 23    14 10 13.5 -19 59 59   0.04648 1.0231    97.5    79.9    22.0
    ...
    2023 07 31    17 58 03.2 -15 38 05   0.02996 1.0388   141.6    37.4    19.8
    ...
    2023 08 06    20 39 51.5 -03 04 39   0.04315 1.0562   165.2    14.2    19.9
    2023 08 07    20 55 11.9 -01 41 35   0.04679 1.0595   164.8    14.5    20.1
    2023 08 08    21 08 14.6 -00 31 06   0.05066 1.0629   164.2    15.1    20.3
    ...
    2023 08 14    21 56 16.2 +03 36 13   0.07680 1.0860   160.8    17.8    21.3
    ...
    2023 08 22    22 23 34.3 +05 26 01   0.1162  1.1225   161.7    16.4    22.2
    ...
    2023 09 06    22 42 29.1 +05 32 39   0.2012  1.2053   167.2    10.7    23.4
    
    M. P. C. Staff               (C) Copyright 2023 MPC           M.P.E.C. 2023-P26
    


    Read MPEC 2023-P25 Read MPEC 2023-P27


    MPEC number:

    Enter an MPEC number in one of the following forms:

    • 1997-B01 (the full form)
    • J97B01 (the packed version of the full form)
    • B01 (the abbreviated form)